sat.trackr.live / text

‹ back to catalog

STARLINK-5481

NORAD 57255 · 2023-094AP

PAYLOAD ACTIVE UNKNOWN

§ Identity

Operator
Country
US
Launch date
2023-07-07
Launch site
AFWTR
Launch vehicle
Mass (kg)
RCS (m²)

Purposes: comms

External: N2YO · Heavens-Above · Gunter

§ Orbital elements

Epoch: 2026-05-24T22:18:48.326400Z

Period
94.27 min
Inclination
43.0017°
Eccentricity
0.0001440
Mean motion
15.27579852 rev/d
Perigee alt
482.1 km
Apogee alt
484.0 km
Semi-major
6,861.2 km
B*
4.4302e-5
RAAN
308.9997°
Arg perigee
270.6584°
Mean anomaly
89.4103°
Rev number
15,890

§ Raw data

STARLINK-54811 57255U 23094AP  26144.92972600  .00000957  00000+0  44302-4 0  99912 57255  43.0017 308.9997 0001440 270.6584  89.4103 15.27579852158906

JSON: /api/v1/satellites/57255 · /tle

For live sub-satellite position, see the globe view (requires WebGL).

§ Visibility from observer

Set your observer location to see the next 7 days of passes ≥ 10°. The values pass through the URL so the page stays shareable.

No JS? Fill the form by hand. The geolocation button needs JavaScript.